EW1620 Weather Reports


time (UTC)temp
C
wind
direction
speed
KPH
gust
KPH
rain 1hr
cm
rain 24hr
cm
rain mn
cm
humidity
%
barometer
mb
20260510095000 13 137 0.0 0.0 0.00 0.00 0.00 71 1031.5
20260510094607 14 137 0.0 1.6 0.00 0.00 0.00 71 1031.6
20260510094103 14 137 0.0 1.6 0.00 0.00 0.00 71 1031.5
20260510093600 14 137 0.0 1.6 0.00 0.00 0.00 71 1031.4
20260510093102 14 137 0.0 4.8 0.00 0.00 0.00 71 1031.3
20260510092558 14 137 0.0 4.8 0.00 0.00 0.00 71 1031.4
20260510092057 14 137 0.0 1.6 0.00 0.00 0.00 71 1031.3
20260510091557 14 137 0.0 3.2 0.00 0.00 0.00 71 1031.3
20260510091057 14 137 0.0 4.8 0.00 0.00 0.00 71 1031.3
20260510090559 14 137 0.0 9.7 0.00 0.00 0.00 71 1031.3
20260510085558 14 159 0.0 3.2 0.00 0.00 0.00 70 1031.2
20260510085058 14 159 0.0 3.2 0.00 0.00 0.00 70 1031.1
20260510084612 14 161 0.0 3.2 0.00 0.00 0.00 70 1031.1
20260510084102 14 183 0.0 3.2 0.00 0.00 0.00 70 1031.1
20260510083558 14 184 0.0 4.8 0.00 0.00 0.00 70 1031.1
20260510083058 14 184 1.6 4.8 0.00 0.00 0.00 70 1031.0
20260510082557 14 114 0.0 4.8 0.00 0.00 0.00 70 1031.0
20260510082057 14 63 0.0 8.0 0.00 0.00 0.00 70 1030.9
20260510081600 14 109 1.6 8.0 0.00 0.00 0.00 70 1030.8
20260510081059 14 142 3.2 9.7 0.00 0.00 0.00 69 1030.8
20260510080601 15 155 3.2 8.0 0.00 0.00 0.00 69 1030.7
20260510080059 15 163 0.0 3.2 0.00 0.00 0.00 68 1030.7
20260510075557 15 163 0.0 3.2 0.00 0.00 0.00 68 1030.6
20260510075054 15 163 0.0 4.8 0.00 0.00 0.00 68 1030.6
20260510074555 15 155 1.6 4.8 0.00 0.00 0.00 67 1030.6
20260510074054 15 163 0.0 3.2 0.00 0.00 0.00 67 1030.5
20260510073553 15 162 0.0 3.2 0.00 0.00 0.00 67 1030.4
20260510073103 15 163 0.0 4.8 0.00 0.00 0.00 66 1030.5
20260510072554 15 162 0.0 4.8 0.00 0.00 0.00 66 1030.5
20260510072057 15 159 1.6 4.8 0.00 0.00 0.00 66 1030.4
20260510071554 15 189 1.6 6.4 0.00 0.00 0.00 67 1030.5
20260510071053 15 128 1.6 8.0 0.00 0.00 0.00 66 1030.4
20260510070553 15 170 3.2 9.7 0.00 0.00 0.00 66 1030.4
20260510070055 15 182 3.2 6.4 0.00 0.00 0.00 65 1030.4
20260510065553 16 157 0.0 4.8 0.00 0.00 0.00 65 1030.3
20260510065053 16 183 0.0 4.8 0.00 0.00 0.00 64 1030.3
20260510064554 16 183 1.6 11.3 0.00 0.00 0.00 64 1030.2
20260510064052 16 174 3.2 11.3 0.00 0.00 0.00 63 1030.2
20260510063552 16 144 1.6 11.3 0.00 0.00 0.00 63 1030.2
20260510063052 16 119 1.6 12.9 0.00 0.00 0.00 63 1030.1
20260510062551 16 115 3.2 12.9 0.00 0.00 0.00 62 1030.1
20260510062051 16 134 1.6 11.3 0.00 0.00 0.00 62 1030.1
20260510061555 17 128 3.2 16.1 0.00 0.00 0.00 62 1030.0
20260510061056 17 129 8.0 16.1 0.00 0.00 0.00 61 1030.1
20260510060553 17 92 4.8 12.9 0.00 0.00 0.00 62 1030.0
20260510060054 17 146 4.8 9.7 0.00 0.00 0.00 63 1030.0
20260510055552 17 186 1.6 6.4 0.00 0.00 0.00 63 1030.0
20260510055055 16 81 3.2 12.9 0.00 0.00 0.00 62 1029.9
20260510054551 16 128 3.2 12.9 0.00 0.00 0.00 62 1029.9
20260510054050 16 147 1.6 8.0 0.00 0.00 0.00 61 1029.9
20260510053550 17 114 1.6 6.4 0.00 0.00 0.00 61 1029.9
20260510053050 17 118 1.6 14.5 0.00 0.00 0.00 61 1029.9
20260510052550 17 133 6.4 14.5 0.00 0.00 0.00 60 1029.9
20260510052052 17 131 4.8 14.5 0.00 0.00 0.00 61 1029.8
20260510051549 17 107 4.8 14.5 0.00 0.00 0.00 61 1029.8
20260510051048 17 192 3.2 9.7 0.00 0.00 0.00 61 1029.8
20260510050548 17 135 1.6 9.7 0.00 0.00 0.00 61 1029.8
20260510050049 17 134 3.2 8.0 0.00 0.00 0.00 61 1029.8
20260510045549 17 113 3.2 8.0 0.00 0.00 0.00 62 1029.8
20260510045048 17 195 3.2 11.3 0.00 0.00 0.00 61 1029.8
20260510044555 17 150 4.8 12.9 0.00 0.00 0.00 61 1029.8
20260510044047 17 163 4.8 12.9 0.00 0.00 0.00 61 1029.8
20260510043548 17 130 4.8 12.9 0.00 0.00 0.00 62 1029.7
20260510043102 17 134 3.2 14.5 0.00 0.00 0.00 61 1029.7
20260510042548 17 120 4.8 14.5 0.00 0.00 0.00 62 1029.7
20260510042047 17 144 4.8 12.9 0.00 0.00 0.00 62 1029.6
20260510041547 17 115 1.6 14.5 0.00 0.00 0.00 62 1029.7
20260510041048 17 109 6.4 14.5 0.00 0.00 0.00 62 1029.8
20260510040546 17 179 1.6 14.5 0.00 0.00 0.00 61 1029.8
20260510040056 17 148 6.4 14.5 0.00 0.00 0.00 62 1029.9
20260510035545 17 161 3.2 11.3 0.00 0.00 0.00 64 1029.9
20260510035044 16 136 1.6 9.7 0.00 0.00 0.00 63 1029.9
20260510034547 16 173 3.2 11.3 0.00 0.00 0.00 64 1029.9
20260510034044 16 136 3.2 11.3 0.00 0.00 0.00 65 1029.9
20260510033544 16 136 1.6 8.0 0.00 0.00 0.00 64 1029.9
20260510033053 16 127 0.0 11.3 0.00 0.00 0.00 64 1029.9
20260510032545 16 134 3.2 11.3 0.00 0.00 0.00 63 1030.0
20260510032043 16 146 1.6 11.3 0.00 0.00 0.00 63 1030.0
20260510031544 16 107 6.4 12.9 0.00 0.00 0.00 64 1030.0
20260510031041 16 122 3.2 12.9 0.00 0.00 0.00 65 1030.0
20260510030540 16 147 3.2 11.3 0.00 0.00 0.00 65 1030.0
20260510030042 16 117 3.2 11.3 0.00 0.00 0.00 66 1030.1
20260510025538 16 92 1.6 9.7 0.00 0.00 0.00 66 1030.2
20260510025038 16 73 1.6 6.4 0.00 0.00 0.00 67 1030.3
20260510024539 15 162 1.6 6.4 0.00 0.00 0.00 68 1030.4
20260510024035 15 115 0.0 4.8 0.00 0.00 0.00 68 1030.5
20260510023533 15 61 0.0 6.4 0.00 0.00 0.00 68 1030.6
20260510023035 15 74 1.6 6.4 0.00 0.00 0.00 69 1030.7
20260510022534 15 167 1.6 6.4 0.00 0.00 0.00 68 1030.7
20260510022032 15 140 1.6 6.4 0.00 0.00 0.00 68 1030.8
20260510021534 15 180 1.6 6.4 0.00 0.00 0.00 69 1030.9
20260510021030 15 221 1.6 8.0 0.00 0.00 0.00 70 1031.0
20260510020531 15 211 3.2 8.0 0.00 0.00 0.00 71 1031.0
20260510020029 15 198 1.6 6.4 0.00 0.00 0.00 71 1031.2
20260510015528 15 192 1.6 8.0 0.00 0.00 0.00 72 1031.2
20260510015027 15 190 1.6 8.0 0.00 0.00 0.00 72 1031.3
20260510014528 15 141 1.6 6.4 0.00 0.00 0.00 73 1031.3
20260510014026 15 118 1.6 6.4 0.00 0.00 0.00 73 1031.3
20260510013526 15 148 1.6 4.8 0.00 0.00 0.00 74 1031.3
20260510013026 15 126 1.6 6.4 0.00 0.00 0.00 74 1031.4
20260510012525 15 128 1.6 8.0 0.00 0.00 0.00 74 1031.4
20260510012026 14 142 1.6 11.3 0.00 0.00 0.00 74 1031.5
20260510011536 14 115 3.2 11.3 0.00 0.00 0.00 74 1031.4
20260510011022 14 163 0.0 9.7 0.00 0.00 0.00 74 1031.5
20260510010522 14 157 3.2 9.7 0.00 0.00 0.00 74 1031.5
20260510010020 14 127 1.6 8.0 0.00 0.00 0.00 75 1031.5
20260510005519 13 120 1.6 8.0 0.00 0.00 0.00 76 1031.5
20260510005016 13 133 0.0 6.4 0.00 0.00 0.00 77 1031.5
20260510004515 13 140 3.2 8.0 0.00 0.00 0.00 78 1031.5
20260510004014 13 141 3.2 11.3 0.00 0.00 0.00 80 1031.5
20260510003513 13 143 1.6 11.3 0.00 0.00 0.00 81 1031.5
20260510003011 13 126 1.6 4.8 0.00 0.00 0.00 83 1031.6
20260510002511 13 132 1.6 9.7 0.00 0.00 0.00 84 1031.6
20260510002009 13 174 1.6 9.7 0.00 0.00 0.00 86 1031.6
20260510001507 13 169 4.8 9.7 0.00 0.00 0.00 87 1031.6
20260510001007 12 148 1.6 6.4 0.00 0.00 0.00 89 1031.6
20260510000506 12 138 0.0 8.0 0.00 0.00 0.00 90 1031.6
20260510000012 12 248 3.2 8.0 0.00 0.00 0.00 90 1031.5
20260509235504 12 169 1.6 4.8 0.00 0.00 0.00 91 1031.6
20260509235010 12 177 1.6 4.8 0.00 0.00 0.00 92 1031.6
20260509234509 12 217 0.0 3.2 0.00 0.00 0.00 92 1031.5
20260509234008 12 219 0.0 3.2 0.00 0.00 0.00 92 1031.6
20260509233509 12 219 0.0 1.6 0.00 0.00 0.00 92 1031.6
20260509233005 12 219 0.0 1.6 0.00 0.00 0.00 92 1031.5
20260509232505 12 219 0.0 1.6 0.00 0.00 0.00 92 1031.5
20260509232004 12 219 0.0 1.6 0.00 0.00 0.00 92 1031.5
20260509231504 12 219 0.0 1.6 0.00 0.00 0.00 92 1031.5
20260509231003 12 219 0.0 1.6 0.00 0.00 0.00 93 1031.5
20260509230503 12 219 0.0 1.6 0.00 0.00 0.00 93 1031.4
20260509230002 12 219 0.0 1.6 0.00 0.00 0.00 93 1031.4
20260509225501 12 219 0.0 1.6 0.00 0.00 0.00 93 1031.3
20260509224556 12 219 0.0 1.6 0.00 0.00 0.00 93 1031.3
20260509224056 12 219 0.0 1.6 0.00 0.00 0.00 93 1031.3
20260509223553 12 219 0.0 0.0 0.00 0.00 0.00 93 1031.3
20260509223100 12 219 0.0 0.0 0.00 0.00 0.00 93 1031.3
20260509222550 12 219 0.0 0.0 0.00 0.00 0.00 93 1031.3
20260509222049 12 219 0.0 0.0 0.00 0.00 0.00 93 1031.3
20260509221549 12 219 0.0 1.6 0.00 0.00 0.00 92 1031.2
20260509221047 12 219 0.0 1.6 0.00 0.00 0.00 92 1031.1
20260509220646 12 219 0.0 1.6 0.00 0.00 0.00 92 1031.0
20260509220047 12 219 0.0 1.6 0.00 0.00 0.00 93 1031.0
20260509215545 12 219 0.0 3.2 0.00 0.00 0.00 93 1030.9
20260509215144 11 219 0.0 3.2 0.00 0.00 0.00 92 1030.8
20260509214541 11 219 0.0 0.0 0.00 0.00 0.00 92 1030.7
20260509214040 11 219 0.0 0.0 0.00 0.00 0.00 92 1030.7
20260509213539 11 219 0.0 0.0 0.00 0.00 0.00 92 1030.6
20260509213040 11 219 0.0 0.0 0.00 0.00 0.00 92 1030.6
20260509212537 11 219 0.0 1.6 0.00 0.00 0.00 92 1030.5
20260509212037 11 219 0.0 1.6 0.00 0.00 0.00 92 1030.4
20260509211538 11 219 0.0 1.6 0.00 0.00 0.00 92 1030.4
20260509211036 11 219 0.0 1.6 0.00 0.00 0.00 92 1030.3
20260509210535 11 219 0.0 0.0 0.00 0.00 0.00 92 1030.3
20260509210041 11 219 0.0 1.6 0.00 0.00 0.00 92 1030.3
20260509205535 11 219 0.0 1.6 0.00 0.00 0.00 92 1030.3
20260509205136 11 219 0.0 1.6 0.00 0.00 0.00 92 1030.2
20260509204541 11 219 0.0 1.6 0.00 0.00 0.00 92 1030.2
20260509204035 11 219 0.0 0.0 0.00 0.00 0.00 92 1030.2
20260509203535 12 219 0.0 1.6 0.00 0.00 0.00 92 1030.1
20260509203033 12 219 0.0 3.2 0.00 0.00 0.00 92 1030.2
20260509202533 12 219 0.0 3.2 0.00 0.00 0.00 92 1030.2
20260509202034 12 219 0.0 3.2 0.00 0.00 0.00 92 1030.1
20260509201537 12 219 0.0 3.2 0.00 0.00 0.00 92 1030.0
20260509201032 12 219 0.0 3.2 0.00 0.00 0.00 92 1029.9
20260509200532 12 219 0.0 1.6 0.00 0.00 0.00 92 1029.9
20260509200034 12 219 0.0 4.8 0.00 0.00 0.00 92 1029.9
20260509195532 12 219 0.0 4.8 0.00 0.00 0.00 92 1029.9
20260509195130 12 223 0.0 3.2 0.00 0.00 0.00 92 1029.8
20260509194534 12 223 0.0 3.2 0.00 0.00 0.00 92 1029.7
20260509194028 12 223 0.0 3.2 0.00 0.00 0.00 92 1029.6
20260509193528 12 223 0.0 4.8 0.00 0.00 0.00 92 1029.6
20260509193029 12 224 1.6 4.8 0.00 0.00 0.00 92 1029.5
20260509192525 12 214 0.0 4.8 0.00 0.00 0.00 92 1029.5
20260509192028 12 205 1.6 4.8 0.00 0.00 0.00 92 1029.4
20260509191527 12 210 0.0 4.8 0.00 0.00 0.00 92 1029.3
20260509191024 12 192 1.6 4.8 0.00 0.00 0.00 92 1029.2
20260509190523 12 235 0.0 6.4 0.00 0.00 0.00 92 1029.3
20260509190023 12 249 1.6 6.4 0.00 0.00 0.00 92 1029.2
20260509185522 12 205 0.0 8.0 0.00 0.00 0.00 92 1029.2
20260509185122 12 215 1.6 8.0 0.00 0.00 0.00 92 1029.1
20260509184534 12 177 1.6 3.2 0.00 0.00 0.00 92 1029.0
20260509184019 12 175 0.0 4.8 0.00 0.00 0.00 92 1029.0
20260509183519 12 198 0.0 4.8 0.00 0.00 0.00 92 1029.0
20260509183020 12 198 1.6 4.8 0.00 0.00 0.00 92 1028.9
20260509182519 12 196 0.0 3.2 0.00 0.00 0.00 92 1028.9
20260509182018 12 196 0.0 4.8 0.00 0.00 0.00 92 1028.9
20260509181519 12 217 1.6 4.8 0.00 0.00 0.00 92 1028.9
20260509181019 12 226 1.6 8.0 0.00 0.00 0.00 92 1028.8
20260509180518 12 206 1.6 8.0 0.00 0.00 0.00 92 1028.7
20260509180018 12 207 3.2 6.4 0.00 0.00 0.00 92 1028.8
20260509175520 12 236 1.6 6.4 0.00 0.00 0.00 92 1028.7
20260509175118 12 243 3.2 6.4 0.00 0.00 0.00 91 1028.7
20260509174518 12 197 1.6 4.8 0.00 0.00 0.00 91 1028.7
20260509174017 12 207 0.0 3.2 0.00 0.00 0.00 91 1028.7
20260509173517 12 207 0.0 4.8 0.00 0.00 0.00 91 1028.7
20260509173017 12 205 0.0 6.4 0.00 0.00 0.00 91 1028.7
20260509172515 12 229 1.6 6.4 0.00 0.00 0.00 91 1028.8
20260509172016 12 223 1.6 6.4 0.00 0.00 0.00 91 1028.8
20260509171517 12 216 1.6 6.4 0.00 0.00 0.00 91 1028.8
20260509171015 12 208 1.6 6.4 0.00 0.00 0.00 91 1028.8
20260509170514 12 263 0.0 6.4 0.00 0.00 0.00 91 1028.8
20260509170016 12 239 0.0 6.4 0.00 0.00 0.00 91 1028.8
20260509165513 12 236 1.6 6.4 0.00 0.00 0.00 91 1028.9
20260509165114 12 241 1.6 6.4 0.00 0.00 0.00 91 1028.9
20260509164512 12 198 0.0 3.2 0.00 0.00 0.00 91 1028.9
20260509164012 12 219 0.0 9.7 0.00 0.00 0.00 91 1029.0
20260509163511 12 212 3.2 9.7 0.00 0.00 0.00 91 1029.0
20260509163016 12 241 1.6 9.7 0.00 0.00 0.00 91 1029.0
20260509162510 12 208 3.2 9.7 0.00 0.00 0.00 90 1028.9
20260509162010 12 213 3.2 9.7 0.00 0.00 0.00 90 1028.9
20260509161510 12 191 3.2 8.0 0.00 0.00 0.00 90 1029.0
20260509161011 12 199 1.6 9.7 0.00 0.00 0.00 90 1029.0
20260509160508 12 196 1.6 8.0 0.00 0.00 0.00 90 1029.0
20260509160008 12 216 1.6 8.0 0.00 0.00 0.00 90 1029.0
20260509155507 12 172 1.6 6.4 0.00 0.00 0.00 90 1029.0
20260509155107 12 186 1.6 8.0 0.00 0.00 0.00 89 1029.0
20260509154508 12 175 1.6 8.0 0.00 0.00 0.00 89 1029.0
20260509154008 12 178 0.0 4.8 0.00 0.00 0.00 89 1029.1
20260509153506 12 159 0.0 3.2 0.00 0.00 0.00 89 1029.1
20260509153005 12 159 0.0 3.2 0.00 0.00 0.00 89 1029.1
20260509152605 12 159 0.0 3.2 0.00 0.00 0.00 89 1029.0
20260509152004 12 159 0.0 4.8 0.00 0.00 0.00 89 1029.0
20260509151503 12 159 0.0 4.8 0.00 0.00 0.00 88 1029.1
20260509151002 12 114 0.0 3.2 0.00 0.00 0.00 88 1029.1
20260509150502 12 113 0.0 3.2 0.00 0.00 0.00 88 1029.1
20260509150001 12 355 0.0 1.6 0.00 0.00 0.00 88 1029.0
20260509145501 12 355 0.0 1.6 0.00 0.00 0.00 88 1029.0
20260509145101 12 345 0.0 1.6 0.00 0.00 0.00 88 1029.0
20260509144502 12 345 0.0 1.6 0.00 0.00 0.00 88 1029.0
20260509144101 12 345 0.0 0.0 0.00 0.00 0.00 88 1028.9
20260509143600 12 345 0.0 1.6 0.00 0.00 0.00 88 1028.9
20260509143129 12 345 0.0 1.6 0.00 0.00 0.00 88 1028.9
20260509142559 12 345 0.0 1.6 0.00 0.00 0.00 87 1028.9
20260509142102 12 345 0.0 0.0 0.00 0.00 0.00 87 1028.9
20260509141557 12 345 0.0 0.0 0.00 0.00 0.00 87 1028.9
20260509141057 12 345 0.0 1.6 0.00 0.00 0.00 87 1028.9
20260509140555 12 345 0.0 1.6 0.00 0.00 0.00 87 1029.0
20260509140104 12 345 0.0 1.6 0.00 0.00 0.00 87 1029.0
20260509135555 12 345 0.0 1.6 0.00 0.00 0.00 87 1029.0
20260509135057 12 345 0.0 3.2 0.00 0.00 0.00 87 1029.0
20260509134611 12 345 0.0 4.8 0.00 0.00 0.00 87 1029.0
20260509134056 12 26 1.6 4.8 0.00 0.00 0.00 87 1029.0
20260509133556 12 346 1.6 3.2 0.00 0.00 0.00 87 1029.0
20260509133056 12 345 0.0 1.6 0.00 0.00 0.00 86 1029.0
20260509132556 12 345 0.0 1.6 0.00 0.00 0.00 86 1029.0
20260509132058 12 345 0.0 0.0 0.00 0.00 0.00 86 1029.1
20260509131556 12 345 0.0 1.6 0.00 0.00 0.00 86 1029.1
20260509131055 12 345 0.0 1.6 0.00 0.00 0.00 86 1029.0
20260509130555 12 345 0.0 0.0 0.00 0.00 0.00 86 1029.1
20260509130100 12 345 0.0 3.2 0.00 0.00 0.00 86 1029.1
20260509125555 12 345 0.0 4.8 0.00 0.00 0.00 86 1029.0
20260509125054 12 28 1.6 4.8 0.00 0.00 0.00 86 1029.0
20260509124553 12 63 0.0 3.2 0.00 0.00 0.00 86 1029.0
20260509124053 12 67 0.0 3.2 0.00 0.00 0.00 86 1029.0
20260509123553 12 75 0.0 1.6 0.00 0.00 0.00 85 1029.0
20260509123118 12 75 0.0 1.6 0.00 0.00 0.00 85 1029.0
20260509122552 12 75 0.0 1.6 0.00 0.00 0.00 85 1029.0
20260509122052 12 75 0.0 1.6 0.00 0.00 0.00 85 1029.1
20260509121610 12 75 0.0 1.6 0.00 0.00 0.00 85 1029.0
20260509121052 12 75 0.0 1.6 0.00 0.00 0.00 85 1029.0
20260509120552 12 75 0.0 1.6 0.00 0.00 0.00 85 1029.1
20260509115550 12 75 0.0 0.0 0.00 0.00 0.00 84 1029.1
20260509115051 12 75 0.0 0.0 0.00 0.00 0.00 84 1029.0
20260509114552 12 75 0.0 0.0 0.00 0.00 0.00 84 1029.0
20260509114051 12 75 0.0 0.0 0.00 0.00 0.00 84 1028.9
20260509113553 12 75 0.0 0.0 0.00 0.00 0.00 84 1028.9
20260509113049 12 75 0.0 1.6 0.00 0.00 0.00 84 1028.8
20260509112547 12 75 0.0 1.6 0.00 0.00 0.00 84 1028.8
20260509112048 12 75 0.0 1.6 0.00 0.00 0.00 84 1028.7
20260509111600 12 75 0.0 3.2 0.00 0.00 0.00 84 1028.8
20260509111048 12 75 0.0 3.2 0.00 0.00 0.00 84 1028.8
20260509110547 12 171 0.0 1.6 0.00 0.00 0.00 83 1028.7
20260509110047 12 171 0.0 1.6 0.00 0.00 0.00 83 1028.7
20260509105547 12 171 0.0 1.6 0.00 0.00 0.00 83 1028.7
20260509105047 12 171 0.0 1.6 0.00 0.00 0.00 82 1028.8
20260509104548 12 171 0.0 0.0 0.00 0.00 0.00 82 1028.8
20260509104046 12 171 0.0 1.6 0.00 0.00 0.00 82 1028.8
20260509103546 12 171 0.0 1.6 0.00 0.00 0.00 82 1028.8
20260509103059 12 171 0.0 1.6 0.00 0.00 0.00 82 1028.7
20260509102545 12 171 0.0 0.0 0.00 0.00 0.00 81 1028.7
20260509102046 12 171 0.0 0.0 0.00 0.00 0.00 81 1028.7
20260509101616 12 171 0.0 0.0 0.00 0.00 0.00 80 1028.7
20260509101044 12 171 0.0 0.0 0.00 0.00 0.00 79 1028.6
20260509100545 12 171 0.0 0.0 0.00 0.00 0.00 79 1028.6
20260509100045 12 171 0.0 0.0 0.00 0.00 0.00 78 1028.6
20260509095545 12 171 0.0 0.0 0.00 0.00 0.00 77 1028.6